Voltar ao catálogo

FENGYUN 1C DEB

AtivoSSO
NORAD 36211·DEBRIS·🇨🇳 China

Lançado May 10, 1999 de Taiyuan Satellite Launch Center

Loading…

Próximas Passagens (próximas 24 horas)

TLE

EnvelhecendoSource: Space-Track

Época: Sep 8, 2026, 05:21 UTC

1 36211U 99025DUL 26251.22309157  .00000653  00000-0  19942-3 0  9995
2 36211  98.5208 242.3529 0264830 158.5204 202.7340 14.26857349982110

Acompanhe FENGYUN 1C DEB em tempo real com AllMySat

Download on the App Store